This is the latest recevied weather packets stored in our database for station/object WX0ABE-13. If no packets are shown the sender has not sent any weather packets the latest 10 day(s).
| Time | Temp. | Humidity | Pressure | Rain* | Wind** | Luminosity | Snow |
|---|---|---|---|---|---|---|---|
| 1787715036 | 24.44° C | 56% | 1022.9 hPa | 0 mm | - | 0 W/m² | - |
| 1787714732 | 25° C | 54% | 1022.9 hPa | 0 mm | - | 0 W/m² | - |
| 1787714429 | 24.44° C | 52% | 1022.8 hPa | 0 mm | - | 0 W/m² | - |
| 1787714125 | 24.44° C | 54% | 1022.8 hPa | 0 mm | - | 0 W/m² | - |
| 1787713821 | 24.44° C | 53% | 1023 hPa | 0 mm | - | 0 W/m² | - |
| 1787713516 | 24.44° C | 54% | 1023.6 hPa | 0 mm | - | 0 W/m² | - |
| 1787713214 | 24.44° C | 55% | 1023.6 hPa | 0 mm | - | 0 W/m² | - |
| 1787712908 | 24.44° C | 54% | 1023.8 hPa | 0 mm | - | 0 W/m² | - |
| 1787712604 | 23.89° C | 58% | 1023.8 hPa | 0 mm | - | 0 W/m² | - |
| 1787712304 | 23.33° C | 65% | 1023.6 hPa | 0 mm | - | 0 W/m² | - |
| 1787712004 | 23.89° C | 68% | 1023.3 hPa | 0 mm | - | 0 W/m² | - |
| 1787711703 | 23.89° C | 67% | 1023.1 hPa | 0 mm | - | 0 W/m² | - |
| 1787711395 | 24.44° C | 65% | 1022.9 hPa | 0 mm | - | 0 W/m² | - |
| 1787711090 | 24.44° C | 65% | 1022.9 hPa | 0 mm | - | 0 W/m² | - |
| 1787710787 | 24.44° C | 64% | 1022.7 hPa | 0 mm | - | 0 W/m² | - |
| 1787710482 | 24.44° C | 64% | 1022.8 hPa | 0 mm | - | 0 W/m² | - |
| 1787710178 | 23.89° C | 64% | 1022.7 hPa | 0 mm | - | 0 W/m² | - |
| 1787709878 | 23.89° C | 64% | 1022.4 hPa | 0 mm | - | 0 W/m² | - |
| 1787709572 | 24.44° C | 64% | 1022.4 hPa | 0 mm | - | 0 W/m² | - |
| 1787709269 | 24.44° C | 63% | 1022.4 hPa | 0 mm | - | 0 W/m² | - |
| 1787708965 | 24.44° C | 62% | 1022.2 hPa | 0 mm | - | 0 W/m² | - |
| 1787708660 | 24.44° C | 62% | 1022.2 hPa | 0 mm | - | 1 W/m² | - |
| 1787708355 | 24.44° C | 62% | 1022.4 hPa | 0 mm | - | 2 W/m² | - |
| 1787708050 | 25° C | 63% | 1022 hPa | 0 mm | - | 3 W/m² | - |
| 1787707747 | 25.56° C | 61% | 1022.3 hPa | 0 mm | - | 4 W/m² | - |
* Rain latest hour (hover to see other rain measurements)
** Current wind speed in m/s (hover to see current wind gust speed)